[[{"header":{"parameterUnit":"m.s-1","parameterCategory":1,"la1":30.2991,"la2":30.254,"lo1":-89.0895,"lo2":-89.0444,"dy":0.0017,"dx":0.0017,"nx":28,"ny":28,"refTime":"2025-09-08T09:00:00:Z","depth":0,"parameterNumber":2,"parameterNumberName":"U-component_of_WINDS"},"data":[0,0,0,0,0,0,0,0,0,0,0,0,0,0,0,0,0,0,0,0,0,0,0,0,0,0,0,0,0,0,0,0,0,0,0,0,0,0,0,0,0,0,0,0,0,0,0,0,0,0,0,0,0,0,0,0,0,0,-5.3535,-5.3536,0,-5.3608,-5.3609,-5.361,-5.3501,-5.3497,-5.3493,-5.349,-5.3561,-5.3566,-5.3571,0,0,0,0,0,0,0,0,0,0,0,0,0,-5.3297,-5.3302,-5.3535,-5.3536,-5.3537,-5.3608,-5.3609,-5.361,-5.3502,-5.3497,-5.3492,-5.3488,-5.3559,-5.3565,-5.3572,0,0,0,0,0,0,0,0,0,0,0,0,0,-5.3388,-5.3303,-5.3535,-5.3492,-5.3488,-5.3608,-5.3609,-5.361,-5.3503,-5.3497,-5.3491,-5.3486,-5.3557,-5.3565,-5.3573,-5.3737,0,0,-5.3597,-5.3601,0,0,0,0,0,0,0,0,-5.3383,-5.3397,-5.3497,-5.3495,-5.3491,-5.354,-5.3551,-5.3653,-5.3504,-5.3497,-5.349,-5.3483,-5.3558,-5.3566,-5.3592,-5.374,-5.3743,-5.3598,-5.3603,-5.3607,-5.3609,0,0,0,0,0,0,0,-5.3377,-5.3393,-5.3564,-5.3499,-5.3495,-5.3467,-5.3473,-5.357,-5.3558,-5.3497,-5.349,-5.35,-5.3555,-5.3584,-5.3593,-5.3744,-5.3598,-5.3605,-5.361,-5.3613,-5.4029,-5.4035,0,0,0,0,0,0,-5.3376,-5.3389,-5.3562,-5.3566,-5.3422,-5.3476,-5.3483,-5.353,-5.3557,-5.3556,-5.3505,-5.3495,-5.3573,-5.3583,-5.3595,-5.3788,-5.3606,-5.3614,-5.3619,-5.4023,-5.4031,-5.4037,0,0,0,0,0,0,-5.3372,-5.3393,-5.3559,-5.3475,-5.3494,-5.3486,-5.3539,-5.3534,-5.3563,-5.3563,-5.356,-5.3537,-5.3569,-5.3583,-5.3702,-5.3789,-5.3618,-5.3625,-5.4016,-5.4026,-5.4034,-5.4177,0,0,0,0,0,0,-5.3365,-5.3392,-5.3455,-5.3478,-5.3499,-5.3667,-5.3545,-5.354,-5.3578,-5.3565,-5.3592,-5.3591,-5.3566,-5.3691,-5.371,-5.3797,-5.3632,-5.4008,-5.402,-5.4031,-5.4164,-5.419,-5.4212,0,0,0,0,0,-5.3357,-5.3492,-5.3459,-5.3481,-5.3579,-5.3672,-5.3684,-5.3654,-5.3586,-5.3648,-5.3648,-5.359,-5.3776,-5.3704,-5.3725,-5.3816,-5.4003,-5.4017,-5.403,-5.4154,-5.4185,-5.4211,0,0,0,0,0,0,-5.3479,-5.3494,-5.3458,-5.3604,-5.3638,-5.3654,-5.3732,-5.3688,-5.3741,-5.3726,-5.3685,-5.3692,-5.3819,-5.3829,-5.3748,-5.3975,-5.3878,-5.3897,-5.3964,-5.3994,-5.4017,-5.4012,-5.3638,0,0,0,0,0,-5.3523,-5.3599,-5.3608,-5.3736,-5.3755,-5.3741,-5.3781,-5.3754,-5.3787,-5.38,-5.3808,-5.3841,-5.3906,-5.3951,-5.4011,-5.4165,-5.4169,-5.4238,-5.4261,-5.4281,-5.4297,-5.4378,-5.4409,-5.4083,-5.4083,-5.4083,0,0,-5.3614,-5.3632,-5.3682,-5.3761,-5.3784,-5.3862,-5.3754,-5.3841,-5.3898,-5.3813,-5.3926,-5.3933,-5.3967,-5.4104,-5.4165,-5.4116,-5.4388,-5.4298,-5.4314,-5.432,-5.4396,-5.4427,-5.4454,-5.4093,-5.4091,-5.4089,0,0,-5.3821,-5.3843,-5.3951,-5.3977,-5.4014,-5.4004,-5.403,-5.4053,-5.4054,-5.4168,-5.4105,-5.4171,-5.4286,-5.4312,-5.434,-5.4557,-5.4505,-5.4577,-5.4701,-5.478,-5.4806,-5.4828,-5.4905,-5.4933,-5.4594,-5.4594,-5.4594,0,-5.3929,-5.4047,-5.4013,-5.4105,-5.4141,-5.4068,-5.4177,-5.4203,-5.4257,-5.4283,-5.4227,-5.4369,-5.4386,-5.4528,-5.4581,-5.4607,-5.4634,-5.4574,-5.4805,-5.4828,-5.4848,-5.492,-5.4949,-5.4603,-5.4602,-5.4601,-5.46,0,-5.4178,-5.426,-5.4343,-5.4399,-5.4444,-5.4544,-5.4524,-5.4573,-5.4543,-5.4538,-5.4653,-5.4672,-5.4734,-5.4766,-5.4737,-5.4904,-5.4872,-5.4812,-5.4713,-5.4888,-5.4955,-5.4983,-5.4615,-5.4612,-5.4609,-5.4607,0,0,-5.4463,-5.4499,-5.453,-5.4554,-5.4589,-5.4651,-5.4747,-5.481,-5.4853,-5.4892,-5.4971,-5.5069,-5.5013,-5.5046,-5.5018,-5.5088,-5.5257,-5.5019,-5.5019,-5.5062,-5.5441,-5.5486,-5.5519,-5.5223,-5.5228,-5.5233,-5.5438,0,-5.4669,-5.4837,-5.4809,-5.4971,-5.5046,-5.4978,-5.5061,-5.5091,-5.5089,-5.515,-5.5147,-5.5217,-5.5139,-5.5158,-5.5224,-5.5223,-5.5333,-5.5208,-5.5295,-5.5298,-5.5288,-5.5554,-5.5602,-5.5796,-5.5464,-5.5469,-5.5472,0,-5.4931,-5.4982,-5.5153,-5.5175,-5.5205,-5.5282,-5.5336,-5.5396,-5.5428,-5.5421,-5.5458,-5.5417,-5.5511,-5.5411,-5.5539,-5.5455,-5.5489,-5.5493,-5.55,-5.5507,-5.5396,-5.5567,-5.5856,-5.5885,-5.5513,-5.551,-5.5507,0,-5.5122,-5.5233,-5.5349,-5.5371,-5.5401,-5.5456,-5.547,-5.5496,-5.5535,-5.5582,-5.5607,-5.5664,-5.5696,-5.574,-5.5715,-5.5645,-5.5847,-5.5746,-5.5843,-5.5844,-5.5889,-5.5886,-5.6187,-5.5912,-5.5911,-5.5911,-5.591,0,-5.5354,-5.5461,-5.5435,-5.5506,-5.5623,-5.5589,-5.5705,-5.5711,-5.5735,-5.5804,-5.5748,-5.5815,-5.5778,-5.5842,-5.5823,-5.5931,-5.5946,-5.5942,-5.5935,-5.5947,-5.5947,-5.5968,-5.5954,-5.5918,-5.5917,-5.5915,-5.5914,0,-5.5587,-5.5574,-5.5696,-5.5714,-5.5721,-5.5806,-5.5821,-5.5886,-5.588,-5.5969,-5.5988,-5.5978,-5.6049,-5.6029,-5.6106,-5.6093,-5.623,-5.6207,-5.622,-5.6214,-5.6313,-5.6304,-5.6637,-5.6678,-5.6377,-5.638,-5.6383,0,-5.5736,-5.5817,-5.5844,-5.5888,-5.5907,-5.5978,-5.6018,-5.5987,-5.603,-5.6072,-5.6133,-5.6199,-5.6251,-5.6368,-5.6366,-5.6425,-5.6402,-5.6515,-5.641,-5.6419,-5.6402,-5.6398,-5.6405,-5.6535,-5.6539,-5.6541,-5.6544,0,-5.6002,-5.5991,-5.6052,-5.6111,-5.6161,-5.6205,-5.6244,-5.6282,-5.6254,-5.6305,-5.6379,-5.6419,-5.6498,-5.6564,-5.6618,-5.663,-5.6582,-5.6577,-5.6602,-5.6614,-5.6619,-5.6617,-5.6277,-5.6569,-5.6567,-5.6565,-5.6563,-5.6562,-5.6196,-5.6265,-5.6295,-5.6364,-5.639,-5.6428,-5.6491,-5.6493,-5.6554,-5.6617,-5.6594,-5.6678,-5.6705,-5.6772,-5.6792,-5.6855,-5.6812,-5.6849,-5.6858,-5.6868,-5.688,-5.6609,-5.6865,-5.6864,-5.6863,-5.6863,-5.6862,0,-5.6459,-5.6475,-5.6539,-5.6596,-5.665,-5.6602,-5.6642,-5.669,-5.6765,-5.6796,-5.6848,-5.6932,-5.6996,-5.6999,-5.7059,-5.7109,-5.7088,-5.7125,-5.7121,-5.7124,-5.6916,-5.6888,-5.7141,-5.7141,-5.7141,-5.7141,-5.7141,-5.7141,-5.6601,-5.6714,-5.6707,-5.6832,-5.6846,-5.6929,-5.6956,-5.699,-5.7014,-5.7111,-5.7164,-5.7167,-5.7186,-5.7246,-5.7302,-5.7301,-5.7325,-5.7371,-5.7362,-5.7167,-5.7139,-5.7113,-5.7086,-5.7377,-5.7377,-5.7565,-5.7567,-5.7568]},{"header":{"parameterUnit":"m.s-1","parameterCategory":1,"la1":30.2991,"la2":30.254,"lo1":-89.0895,"lo2":-89.0444,"dy":0.0017,"dx":0.0017,"nx":28,"ny":28,"refTime":"2025-09-08T09:00:00:Z","depth":0,"parameterNumber":3,"parameterNumberName":"V-component_of_WINDS"},"data":[0,0,0,0,0,0,0,0,0,0,0,0,0,0,0,0,0,0,0,0,0,0,0,0,0,0,0,0,0,0,0,0,0,0,0,0,0,0,0,0,0,0,0,0,0,0,0,0,0,0,0,0,0,0,0,0,0,0,-4.8718,-4.8719,0,-4.8768,-4.8769,-4.8769,-4.8724,-4.8722,-4.8721,-4.8719,-4.8765,-4.8768,-4.8771,0,0,0,0,0,0,0,0,0,0,0,0,0,-4.8579,-4.8582,-4.8718,-4.8719,-4.872,-4.8768,-4.8769,-4.8769,-4.8724,-4.8722,-4.872,-4.8718,-4.8764,-4.8768,-4.8771,0,0,0,0,0,0,0,0,0,0,0,0,0,-4.8635,-4.8583,-4.8718,-4.8703,-4.8702,-4.8768,-4.8769,-4.8769,-4.8725,-4.8722,-4.8719,-4.8717,-4.8763,-4.8768,-4.8772,-4.8854,0,0,-4.8785,-4.8787,0,0,0,0,0,0,0,0,-4.8632,-4.864,-4.8705,-4.8704,-4.8703,-4.8737,-4.8737,-4.8797,-4.8726,-4.8716,-4.8719,-4.8716,-4.8758,-4.8763,-4.8778,-4.8856,-4.8858,-4.8786,-4.8788,-4.879,-4.8792,0,0,0,0,0,0,0,-4.8628,-4.8638,-4.8738,-4.8706,-4.8705,-4.8692,-4.8697,-4.8748,-4.8752,-4.8717,-4.8714,-4.872,-4.8757,-4.8774,-4.8779,-4.8858,-4.8786,-4.879,-4.8792,-4.8794,-4.9003,-4.9006,0,0,0,0,0,0,-4.8627,-4.8635,-4.8736,-4.8739,-4.8661,-4.8697,-4.8702,-4.8729,-4.8751,-4.8752,-4.8723,-4.8718,-4.8767,-4.8773,-4.878,-4.8876,-4.879,-4.8794,-4.8797,-4.9001,-4.9004,-4.9007,0,0,0,0,0,0,-4.8624,-4.8636,-4.8734,-4.8686,-4.8698,-4.8702,-4.8732,-4.8731,-4.8748,-4.8755,-4.8755,-4.8739,-4.8766,-4.8774,-4.8835,-4.8877,-4.8796,-4.88,-4.8997,-4.9002,-4.9006,-4.9068,0,0,0,0,0,0,-4.862,-4.8635,-4.8668,-4.8688,-4.8701,-4.8791,-4.8735,-4.8734,-4.8756,-4.8751,-4.8771,-4.8772,-4.8764,-4.8829,-4.884,-4.8881,-4.8804,-4.8993,-4.8999,-4.9004,-4.9062,-4.9074,-4.9084,0,0,0,0,0,-4.8615,-4.8683,-4.867,-4.8682,-4.8741,-4.8793,-4.88,-4.8791,-4.876,-4.8791,-4.8796,-4.8771,-4.8871,-4.8836,-4.8847,-4.8891,-4.8991,-4.8998,-4.9004,-4.9058,-4.9072,-4.9084,0,0,0,0,0,0,-4.8667,-4.8685,-4.8671,-4.8747,-4.8769,-4.8785,-4.8825,-4.8807,-4.8837,-4.8831,-4.8817,-4.8822,-4.8887,-4.8895,-4.8856,-4.897,-4.8925,-4.8935,-4.8962,-4.8976,-4.8986,-4.8982,-4.8807,0,0,0,0,0,-4.8687,-4.8729,-4.8742,-4.8808,-4.882,-4.8821,-4.8843,-4.8834,-4.8856,-4.8864,-4.8873,-4.8894,-4.8929,-4.8953,-4.8987,-4.9064,-4.9066,-4.9099,-4.911,-4.9119,-4.9127,-4.9166,-4.918,-4.9029,-4.9029,-4.9029,0,0,-4.8729,-4.8745,-4.8772,-4.8819,-4.8835,-4.8877,-4.8829,-4.8876,-4.8906,-4.8871,-4.893,-4.8937,-4.8959,-4.9028,-4.9059,-4.9037,-4.9169,-4.9127,-4.9134,-4.9137,-4.9174,-4.9189,-4.9201,-4.9033,-4.9033,-4.9032,0,0,-4.8827,-4.8844,-4.89,-4.8917,-4.8942,-4.8942,-4.8955,-4.8975,-4.8978,-4.9038,-4.9012,-4.9047,-4.9109,-4.9125,-4.9142,-4.9245,-4.9222,-4.9256,-4.9312,-4.9351,-4.9363,-4.9373,-4.9409,-4.9422,-4.9264,-4.9264,-4.9264,0,-4.8876,-4.894,-4.8931,-4.8979,-4.9,-4.8971,-4.9027,-4.9043,-4.9077,-4.9091,-4.9066,-4.9143,-4.9156,-4.9228,-4.9253,-4.9268,-4.9281,-4.9253,-4.9362,-4.9373,-4.9382,-4.9416,-4.9429,-4.9268,-4.9267,-4.9267,-4.9267,0,-4.8997,-4.9042,-4.9084,-4.9119,-4.9144,-4.9196,-4.9193,-4.9219,-4.9208,-4.921,-4.9269,-4.9284,-4.9319,-4.9336,-4.9325,-4.9406,-4.9391,-4.9365,-4.9319,-4.9401,-4.9432,-4.9445,-4.9273,-4.9272,-4.9271,-4.927,0,0,-4.9129,-4.9158,-4.9173,-4.9188,-4.9214,-4.9247,-4.9296,-4.9332,-4.9354,-4.9378,-4.9418,-4.9471,-4.9447,-4.9465,-4.9456,-4.949,-4.9569,-4.9459,-4.9459,-4.9478,-4.9657,-4.9676,-4.9691,-4.9555,-4.9557,-4.9559,-4.9654,0,-4.9227,-4.9315,-4.9307,-4.9389,-4.9429,-4.9402,-4.9445,-4.9464,-4.9467,-4.95,-4.9502,-4.954,-4.9506,-4.9516,-4.9549,-4.9553,-4.9604,-4.9546,-4.959,-4.9592,-4.9584,-4.9707,-4.9727,-4.9817,-4.9667,-4.9669,-4.967,0,-4.9353,-4.9382,-4.9469,-4.9487,-4.9503,-4.9542,-4.9573,-4.9606,-4.9626,-4.9625,-4.9646,-4.9631,-4.9679,-4.9633,-4.9698,-4.9658,-4.9676,-4.968,-4.9683,-4.9686,-4.9635,-4.9712,-4.9845,-4.9858,-4.969,-4.9688,-4.9687,0,-4.9438,-4.9499,-4.9559,-4.9572,-4.9595,-4.9623,-4.9634,-4.9651,-4.9673,-4.9699,-4.9713,-4.9745,-4.9762,-4.9786,-4.9778,-4.9746,-4.9844,-4.9798,-4.9843,-4.9843,-4.9864,-4.9863,-5.0001,-4.9878,-4.9878,-4.9877,-4.9877,0,-4.9547,-4.9601,-4.9597,-4.9634,-4.9692,-4.9683,-4.974,-4.9747,-4.9763,-4.9799,-4.9777,-4.9811,-4.98,-4.9833,-4.9827,-4.988,-4.9889,-4.9888,-4.9886,-4.9889,-4.9889,-4.99,-4.9893,-4.9881,-4.988,-4.9879,-4.9879,0,-4.9652,-4.9652,-4.9715,-4.9732,-4.9737,-4.9779,-4.9792,-4.9826,-4.9827,-4.9872,-4.9882,-4.9884,-4.9921,-4.9916,-4.9958,-4.9954,-5.002,-5.0011,-5.0013,-5.0011,-5.0055,-5.005,-5.0204,-5.0222,-5.0089,-5.009,-5.0091,0,-4.9721,-4.9762,-4.9783,-4.9806,-4.9819,-4.9856,-4.9878,-4.987,-4.9893,-4.9919,-4.9948,-4.9984,-5.0011,-5.0072,-5.0075,-5.0106,-5.0097,-5.0148,-5.0101,-5.0103,-5.0096,-5.0093,-5.0096,-5.0157,-5.0159,-5.016,-5.0161,0,-4.9843,-4.9841,-4.9874,-4.9907,-4.9934,-4.9959,-4.9982,-5.0002,-4.9995,-5.0022,-5.006,-5.0082,-5.0125,-5.0159,-5.0188,-5.0197,-5.0178,-5.0176,-5.0188,-5.0191,-5.019,-5.019,-5.0037,-5.0172,-5.0171,-5.017,-5.017,-5.0169,-4.9931,-4.9965,-4.9986,-5.0023,-5.0039,-5.0061,-5.0092,-5.0098,-5.013,-5.0165,-5.0157,-5.02,-5.0218,-5.0255,-5.0267,-5.0299,-5.028,-5.0297,-5.0301,-5.0305,-5.031,-5.0187,-5.0304,-5.0304,-5.0304,-5.0303,-5.0303,0,-5.0051,-5.0062,-5.0097,-5.013,-5.0158,-5.0139,-5.0163,-5.0187,-5.0226,-5.0245,-5.0273,-5.0316,-5.0349,-5.0356,-5.0387,-5.0411,-5.0403,-5.042,-5.0417,-5.0419,-5.0326,-5.0312,-5.0426,-5.0426,-5.0426,-5.0426,-5.0426,-5.0426,-5.0116,-5.0173,-5.0173,-5.0236,-5.0247,-5.029,-5.0305,-5.0324,-5.0339,-5.0388,-5.0416,-5.0421,-5.0434,-5.0466,-5.0495,-5.0496,-5.0508,-5.0528,-5.0525,-5.0438,-5.0426,-5.0414,-5.0401,-5.0531,-5.0531,-5.0615,-5.0616,-5.0616]}]]